Regional Weather Roundup
Issued by NWS

Home | Current Version | Previous Version | Text Only | Print | Product List | Glossary On
Versions: 1 2 3 4 5 6 7 8 9 10 11 12 13 14 15 16 17 18 19 20 21 22 23 24 25 26 27 28
000
ASUS45 KTFX 270210
RWRMT
MONTANA REGIONAL WEATHER ROUNDUP
NATIONAL WEATHER SERVICE GREAT FALLS MT
800 PM MDT MON SEP 26 2016

NOTE: "FAIR" INDICATES FEW OR NO CLOUDS BELOW 12000 FEET WITH NO
SIGNIFICANT WEATHER AND/OR OBSTRUCTIONS TO VISIBILITY.

MTZ001>007-043-270300-
WEST OF THE DIVIDE

CITY           SKY/WX    TMP DP  RH WIND       PRES   REMARKS
KALISPELL      CLEAR     58  45  62 CALM      30.13S
MISSOULA       CLEAR     63  48  58 N5        30.15F
BUTTE          CLEAR     59  41  51 E7        30.28S
MULLAN PASS    CLEAR     62  38  40 SW5       30.28F
ANACONDA         N/A     57  39  51 SW7       30.26R
DEER LODGE       N/A     61  43  51 W6        30.26S
EUREKA           N/A     70  45  40 SE6       30.08S
HAMILTON         N/A     64  54  68 CALM      30.17S
LIBBY            N/A     63  52  67 CALM      30.08S
RONAN            N/A     61  48  62 CALM      30.17F
$$

MTZ008-052>055-270300-
SOUTHWEST MONTANA

CITY           SKY/WX    TMP DP  RH WIND       PRES   REMARKS
BOZEMAN        CLEAR     58  44  60 S6        30.22F
DILLON         CLEAR     61  44  53 NE6       30.25S
W YELLOWSTONE  CLOUDY    57  41  54 SW5       30.38S
ENNIS          CLEAR     59  41  51 CALM      30.32S
THREE FORKS      N/A     61  61 100 CALM      30.19S
TWIN BRIDGES     N/A     59  42  53 E5        30.21S
$$

MTZ009-010-012-014-046-048-049-054-270300-
EAST SLOPES AND CENTRAL MONTANA

CITY           SKY/WX    TMP DP  RH WIND       PRES   REMARKS
CUT BANK       CLEAR     63  39  41 W13       30.08F
GREAT FALLS    CLEAR     62  41  46 SW13      30.10F
MALMSTROM AFB  CLEAR     62  43  50 SW16      30.10F
HELENA         CLEAR     65  46  50 W6        30.17F
CHOTEAU          N/A     66  37  34 SW5       30.13S
CONRAD           N/A     56  44  64 SW5       30.12S
$$

MTZ011-013-016-021-045-047-050-051-270300-
NORTH CENTRAL MONTANA

CITY           SKY/WX    TMP DP  RH WIND       PRES   REMARKS
HAVRE          CLEAR     59  47  64 S8        30.02F
LEWISTOWN      CLEAR     58  47  66 S9        30.15F
N BAR RANCH      N/A     57  48  72 W6        30.20S
CHINOOK          N/A     61  50  67 E6        30.03F
$$

MTZ017>020-022>027-061-062-270300-
NORTHEAST MONTANA

CITY           SKY/WX    TMP DP  RH WIND       PRES   REMARKS
GLASGOW        CLEAR     62  44  51 CALM      30.08F
JORDAN           N/A     57  48  72 SE3       30.10F
SIDNEY         CLEAR     55  42  61 W8        30.09F
WOLF POINT     PTCLDY    58  46  64 CALM      30.09F
POPLAR           N/A     59  45  58 N3        30.10R
$$

MTZ028>42-056>058-270300-
SOUTHCENTRAL AND SOUTHEAST MONTANA

CITY           SKY/WX    TMP DP  RH WIND       PRES   REMARKS
BAKER          CLOUDY    55  42  61 SW5       30.16F
BILLINGS       PTCLDY    67  45  45 SW13      30.17S
LIVINGSTON     CLOUDY    59  36  42 SW12      30.21F
MILES CITY     PTCLDY    59  48  67 SW8       30.13F
BIG TIMBER     CLEAR     63  41  45 SW15      30.22S
FORSYTH          N/A     57  48  72 SE5       30.13F
LAUREL           N/A     64  44  48 SW2       30.15
ROUNDUP          N/A     66  45  46 S6        30.05S
$$

REGIONAL REPORTS...DAKOTAS

CITY           SKY/WX    TMP DP  RH WIND       PRES   REMARKS
WILLISTON      CLEAR     51  41  68 NW5       30.09S
MINOT          CLEAR     57  37  47 W9        30.05S
DICKINSON      CLEAR     50  38  63 W5        30.11F
CROSBY           N/A     46  39  76 W5        30.10S
WATFORD CITY     N/A     52  43  71 S6        30.10S
BISMARCK       CLEAR     54  38  54 W6        30.08S
GRAND FORKS    CLEAR     48  38  68 NW8       29.93R
FARGO          CLEAR     52  31  44 W9        29.95R
BUFFALO SD       N/A     59  42  53 W6        30.11F
RAPID CITY     CLEAR     56  40  55 N13       30.20R
$$

REGIONAL REPORTS...WYOMING/IDAHO/WASHINGTON

CITY           SKY/WX    TMP DP  RH WIND       PRES   REMARKS
GILLETTE       CLEAR     51  46  83 W8        30.25F
SHERIDAN       CLOUDY    56  48  74 S3        30.22F
BUFFALO WY     CLOUDY    56  46  69 SW8       30.29F
CODY           CLOUDY    59  47  64 S3        30.30S
YELLOWSTONE LA   N/A     44  41  89 CALM      30.47S
IDAHO FALLS    CLEAR     61  46  57 CALM      30.29S
SALMON         CLEAR     61  43  51 S5        30.19S
BOISE          CLEAR     76  39  26 S3        30.13S
SPOKANE        PTCLDY    77  46  33 SE3       30.04F
$$

REGIONAL REPORTS...ALBERTA

CITY           SKY/WX    TMP DP  RH WIND       PRES   REMARKS
EDMONTON       PTCLDY    59  41  51 S3        29.82F
CALGARY        MOCLDY    64  34  32 VRB3      29.94F
LETHBRIDGE     PTCLDY    66  43  42 SW13      30.00S
MEDICINE HAT   CLEAR     64  46  52 S6        29.95F
WATERTON GATE    N/A     66  39  37 SW13G18     N/A
CARDSTON         N/A     61  41  48 SE2         N/A
MILK RIVER       N/A     59  39  47 NW5         N/A
$$

REGIONAL REPORTS...SASKATCHEWAN

CITY           SKY/WX    TMP DP  RH WIND       PRES   REMARKS
SWIFT CURRENT  CLEAR     54  43  66 S10       30.03F
REGINA         CLEAR     55  37  50 CALM      30.06F
SASKATOON      PTCLDY    54  39  58 S7        30.04S
CYPRESS HILLS    N/A     54  39  58 S6          N/A
VAL MARIE        N/A     52  45  76 S2          N/A
ROCKGLEN         N/A     57  39  51 S3          N/A
ASSINIBOIA       N/A     59  41  51 SE7         N/A
$$




USA.gov is the U.S. government's official web portal to all federal, state and local government web resources and services.